Simultaneous Nadir Overpasses (SNOs) Predictions

Prediction of SNOs near equator between AQUA and NPP Satellite Orbit:

Table of predicted SNOs near equator for the next 14.0 days since TLE Epoch: 8/28/2021
Index Date (AQUA) Time (AQUA) AQUA Lat,Lon Date (NPP) Time (NPP) NPP Lat,Lon Distance(km) Time Diff (sec)
1 08/28/2021 15:36:12 -5.95, 148.96 08/28/2021 15:26:17 -5.92, 148.81 17.41 595
2 08/28/2021 16:24:28 1.40, -42.45 08/28/2021 16:15:48 1.30, -42.86 47.28 520
3 08/28/2021 17:12:34 3.18, 126.18 08/28/2021 17:05:10 3.31, 125.50 77.11 444
4 08/31/2021 07:52:16 -4.38, -94.83 08/31/2021 07:42:47 -4.36, -95.07 27.42 569
5 08/31/2021 08:40:32 -0.17, 73.76 08/31/2021 08:32:18 -0.26, 73.25 57.13 494
6 08/31/2021 09:28:39 4.69,-117.62 08/31/2021 09:21:40 4.87,-118.38 86.76 419
7 09/02/2021 23:26:28 29.96,-152.49 09/02/2021 23:16:28 30.46,-152.98 73.23 600
8 09/03/2021 00:08:21 -2.87, 21.37 09/02/2021 23:59:17 -2.80, 21.04 37.12 544
9 09/03/2021 00:56:36 -1.73,-170.03 09/03/2021 00:48:47 -1.87,-170.62 66.89 469
10 09/03/2021 01:44:43 6.26, -1.41 09/03/2021 01:38:10 6.43, -2.26 96.30 393
11 09/05/2021 15:36:18 5.84, -31.05 09/05/2021 15:26:24 5.80, -31.19 17.07 594
12 09/05/2021 16:24:24 -1.25, 137.59 09/05/2021 16:15:46 -1.19, 137.17 47.06 518
13 09/05/2021 17:12:40 -3.29, -53.82 09/05/2021 17:05:17 -3.43, -54.50 76.69 443
14 09/08/2021 07:52:21 4.30, 85.16 09/08/2021 07:42:53 4.25, 84.92 27.00 568
15 09/08/2021 08:40:28 0.24,-106.21 09/08/2021 08:32:15 0.37,-106.71 56.98 493
16 09/08/2021 09:28:43 -4.84, 62.39 09/08/2021 09:21:46 -4.98, 61.62 86.50 417
17 09/10/2021 23:26:26 -29.97, 27.51 09/10/2021 23:16:26 -30.38, 27.05 63.22 600
18 09/11/2021 00:08:24 2.70,-158.62 09/10/2021 23:59:22 2.64,-158.95 37.01 542
19 09/11/2021 00:56:32 1.78, 9.99 09/11/2021 00:48:45 1.91, 9.41 66.90 467
20 09/11/2021 01:44:47 -6.37, 178.59 09/11/2021 01:38:15 -6.58, 177.75 96.13 392
